FENGYUN 1C DEB

Satellite information

Favourite Embed

Satellite Type and Status

DEBRISIN ORBIT

Key statistics

Satellite FENGYUN 1C DEB at a glance.

Uptime

9714

Days in orbit

Revolutions

≈ 13.9

Per day

Orbit

SSO

Sun Synchronous Orbit

Inclination

99.1

Latest

Satellite identification and parameters

Extended collection of information and parameters for FENGYUN 1C DEB.

Object identification

Identified? True

Debris? True

Object name: FENGYUN 1C DEB

International designator: 1999-025CQN

Object number (NORAD): 32096

Object ID (CCSDS): 32096

Country: PEOPLES REPUBLIC OF CHINA (PRC)

Current information (Y/N): Y

RCS size: SMALL

Orbital parameters

Period: 103.583 minutes

Inclination: 99.0751 deg

SMA: 7306.125 km

Apoapsis: 1026.322 km

Periapsis: 829.657 km

RAAN: 14.5789 deg

Eccentricy: 0.01345891

Argument of periapsis: 143.12 deg

Mean anomaly: 217.9308 deg

Mean motion: 13.90183528 rev/day

Mean motion (dot): 0.00002214 rev/day2

B* drag term: 0.0016952038 1/REarth

Two-line elements (TLE)

Creation date: Dec. 11, 2025, 7:14 p.m.

Reference frame: TEME

Reference center: EARTH

Epoch: Dec. 11, 2025, 1:23 p.m. UTC

TLE line 0: 0 FENGYUN 1C DEB

TLE line 1: 1 32096U 99025CQN 25345.55777042 .00002214 00000-0 16952-2 0 9995

TLE line 2: 2 32096 99.0751 14.5789 0134589 143.1200 217.9308 13.90183528928456

Live tracking on map

Real-time ground track for satellite FENGYUN 1C DEB.

In-orbit conjunctions

A list of the most updated potential collisions computed for object FENGYUN 1C DEB.

Target Orbit TCA Probability of collision Miss distance Type
SL-16 DEB LEO 2024-11-14 00:43:51 0.0001154136 538.0 (m) DEBRIS
SL-14 DEB LEO 2024-07-13 12:23:24 0.0003877845 47.0 (m) DEBRIS

Associated space launch

Chinese polar orbiting meteorological satellite

FENGYUN 1C DEB was lifted into orbit during the mission ‘Long March 4B | Feng Yun 1C’, on board a Long March 4B space rocket.

The launch took place on May 10, 1999, 1:33 a.m. from Launch Complex 7.

For more information about the launch, click the button.

Launch to space Long March 4B | Feng Yun 1C
Long March 4B | Feng Yun 1C

Agency: N/A

Status: Launch Successful

Launch date: May 10, 1999, 1:33 a.m. UTC

Rocket: Long March 4B

Launch pad: Launch Complex 7

Location: Taiyuan Satellite Launch Center, People's Republic of China

...

Latest news about this satellite

There are no fresh news available about this satellite. Check back as we update our databases every day.


Newsletter sign-up

Weekly statistics, charts and insights to help you stay on top of the space industry.